Regional Weather Roundup
Issued by NWS

Home | Current Version | Previous Version | Text Only | Print | Product List | Glossary On
Versions: 1 2 3 4 5 6 7 8 9 10 11 12 13 14 15 16 17 18 19 20 21 22 23 24 25 26 27 28 29 30 31 32 33 34 35 36 37 38 39 40 41 42 43 44 45 46 47 48 49 50
000
ASUS43 KLOT 252208
RWRIL

ILLINOIS REGIONAL WEATHER ROUNDUP
NATIONAL WEATHER SERVICE CHICAGO/ROMEOVILLE IL
500 PM CDT SAT MAR 25 2017

NOTE: "FAIR" INDICATES FEW OR NO CLOUDS BELOW 12,000 FEET WITH NO
SIGNIFICANT WEATHER AND/OR OBSTRUCTIONS TO VISIBILITY.

* THESE STATIONS ARE NOT UNDER NWS QUALITY CONTROL. THEY ALSO MAY NOT
  REPORT WEATHER SUCH AS PRECIPITATION OR FOG.

ILZ001-002-007-009-015-016-024-252300-
NORTHWEST ILLINOIS

CITY           SKY/WX    TMP DP  RH WIND       PRES   REMARKS
MOLINE         CLOUDY    54  51  90 NE13      29.88S
STERLING*      CLOUDY    48  46  93 NE15      29.93S
SAVANNA*       CLOUDY    46  44  93 NE14G23   29.94S
$$

ILZ003-004-008-010-011-017-018-252300-
NORTH CENTRAL ILLINOIS

CITY           SKY/WX    TMP DP  RH WIND       PRES   REMARKS
ROCKFORD       DRIZZLE   42  39  89 E15       30.00S
FREEPORT*      CLOUDY    41  40  97 NE15      29.99S
ROCHELLE*      DRIZZLE   44  43  97 NE12      29.96S
DE KALB*       CLOUDY    43  43  99 NE13      29.98S FOG
PERU*          CLOUDY    51  50  95 NE15      29.92F FOG
$$

ILZ005-006-012>014-019>023-252300-
NORTHEAST ILLINOIS

CITY           SKY/WX    TMP DP  RH WIND       PRES   REMARKS
CHICAGO-OHARE  LGT RAIN  43  40  89 N10       29.99S FOG
CHICAGO-MIDWAY HVY RAIN  46  45  96 NE10      29.99R FOG
AURORA         CLOUDY    46  44  93 NE13G21   29.97S FOG
LANSING*       LGT RAIN  49  49 100 NW7       29.97S
JOLIET*        DRIZZLE   50  49  97 N7        29.96F
WAUKEGAN       LGT RAIN  40  40 100 NE10      30.02F FOG
DUPAGE AIRPORT LGT RAIN  43  43 100 NE10      29.98S FOG
KANKAKEE*      CLOUDY    59  58  97 CALM      29.94F
WHEELING       CLOUDY    41  41 100 N9        30.01F
MORRIS*        CLOUDY    50  49  93 NE6       29.94F FOG
ROMEOVILLE*    DRIZZLE   47  47 100 NE8       29.97F
NORTHERLY ISL    N/A     42  41  96 N10         N/A
$$

LMZ740>746-252300-
SOUTHERN LAKE MICHIGAN

STATION/POSITION SKY/WX   TEMP    WIND        PRES    VSBY  WAVE
                          AIR SEA DIR/SP/G                  HT/PER
                          (F)     (DEG/KT/KT) (MB)    (MI)  (FT/S)
HARRISON CRIB                     340/ 13/ 14   N/A
BURNHAM HARBOR                    350/ 11/ 13   N/A
CALUMET HARBOR             43     340/ 11/ 14 1014.5F
BURNS HARBOR               60     110/ 10/ 15 1015.2R
MICHIGAN CITY              59      90/ 14/ 16   N/A
$$

ILZ025>027-034>036-040-047-049-050-058-095>099-252300-
WEST-CENTRAL ILLINOIS

CITY           SKY/WX    TMP DP  RH WIND       PRES   REMARKS
QUINCY         CLOUDY    61  56  83 E8        29.81F
GALESBURG*     DRIZZLE   59  55  88 SE7       29.85F
MACOMB*        CLOUDY    60  56  88 SE9       29.86F
JACKSONVILLE*  CLOUDY    61  57  86 E9        29.83F
PITTSFIELD*    LGT RAIN  60  58  93 E7        29.83S
$$

ILZ028>032-037-038-041>044-048-051>054-059>061-252300-
CENTRAL ILLINOIS

CITY           SKY/WX    TMP DP  RH WIND       PRES   REMARKS
PONTIAC        CLOUDY    61  61  98 NE9       29.92F
BLOOMINGTON    LGT RAIN  59  58  96 E7        29.91F FOG
DECATUR        LGT RAIN  62  56  80 S9        29.89S
PEORIA         CLOUDY    60  58  92 E6        29.87F
LACON*         CLOUDY    59  58  97 E3        29.89F
LINCOLN*       LGT RAIN  62  61  97 E3        29.88S
SPRINGFIELD    RAIN      62  59  90 E6        29.86F FOG
TAYLORVILLE    CLOUDY    61  57  88 SE8       29.87S
$$

ILZ033-039-045-046-055>057-062-063-252300-
EAST-CENTRAL ILLINOIS

CITY           SKY/WX    TMP DP  RH WIND       PRES   REMARKS
CHAMPAIGN      CLOUDY    65  55  70 S10       29.91S
RANTOUL*       LGT RAIN  66  57  74 S18       29.92R
MATTOON        LGT RAIN  64  57  78 S10       29.90S
PARIS*         LGT RAIN  67  54  63 S17       29.93R
$$

ILZ079-100>102-252300-
SOUTHWEST ILLINOIS

CITY           SKY/WX    TMP DP  RH WIND       PRES   REMARKS
ALTON          PTSUNNY   63  57  82 SE17      29.82F
BELLEVILLE     PTSUNNY   64  57  77 SE15      29.81F
CAHOKIA*       CLOUDY    64  57  78 SE13      29.80F
SPARTA*        CLOUDY    61  58  90 SE13      29.84F
$$

ILZ064>066-069>071-074>076-080>082-084>086-088>090-092>094-252300-
SOUTH-CENTRAL ILLINOIS

CITY           SKY/WX    TMP DP  RH WIND       PRES   REMARKS
CARBONDALE     CLOUDY    63  61  93 S17       29.85F
CAIRO*         CLOUDY    64  58  81 S13       29.86F
EFFINGHAM*     CLOUDY    64  58  82 SE6       29.91S
MARION         CLOUDY    63  61  94 S10       29.88F
MT. VERNON     LGT RAIN  63  58  83 S10       29.88F
CENTRALIA*     LGT RAIN  62  60  93 SE10      29.87S
SALEM*         HVY RAIN  62  58  86 S5        29.88F
METROPOLIS*    PTSUNNY   67  57  71 S17       29.88F
$$

ILZ067-068-072-073-078-083-087-091-252300-
SOUTHEAST ILLINOIS

CITY           SKY/WX    TMP DP  RH WIND       PRES   REMARKS
LAWRENCEVILLE  CLOUDY    66  59  78 SW9       29.93S
FLORA*         CLOUDY    65  58  76 SE14      29.90F
FAIRFIELD*     CLOUDY    65  57  76 S9        29.89S
HARRISBURG*    CLOUDY    65  59  79 S12       29.89F
ROBINSON*      PTSUNNY   68  55  62 SE18G25   29.92S
CARMI*         CLOUDY    64  58  82 SE12      29.90F
$$

ABBREVIATIONS USED IN REMARKS
   TC - TEMPERATURE IN CELSIUS
  WCI - WIND CHILL INDEX
   HX - HEAT INDEX
  VSB - VISIBILITY
$$





USA.gov is the U.S. government's official web portal to all federal, state and local government web resources and services.